K7LDN-13 Weather Reports


time (UTC)temp
F
wind
direction
speed
knots
gust
knots
rain 1hr
in
rain 24hr
in
rain mn
in
humidity
%
barometer
mb
20260505114236 55 179 6.1 10.4 0.00 0.00 0.00 65 1011.7
20260505113733 55 146 7.0 10.4 0.00 0.00 0.00 68 1011.6
20260505113230 55 182 7.8 10.4 0.00 0.00 0.00 69 1011.7
20260505112726 55 156 2.6 7.8 0.00 0.00 0.00 70 1011.7
20260505112224 55 146 4.3 8.7 0.00 0.00 0.00 69 1011.4
20260505111723 55 140 4.3 10.4 0.00 0.00 0.00 69 1011.4
20260505111220 55 145 3.5 10.4 0.00 0.00 0.00 71 1011.2
20260505110715 55 142 5.2 9.6 0.00 0.00 0.00 70 1011.5
20260505110213 55 143 7.0 11.3 0.00 0.00 0.00 69 1011.6
20260505102149 56 139 5.2 8.7 0.00 0.00 0.00 60 1011.5
20260505101647 56 145 4.3 7.8 0.00 0.00 0.00 60 1011.5
20260505101143 56 172 4.3 6.1 0.00 0.00 0.00 61 1011.5
20260505100639 56 162 2.6 7.0 0.00 0.00 0.00 61 1011.4
20260505100137 56 161 2.6 9.6 0.00 0.00 0.00 63 1011.5
20260505095632 56 152 2.6 7.8 0.00 0.00 0.00 64 1011.4
20260505095130 56 154 6.1 9.6 0.00 0.00 0.00 64 1011.5
20260505094626 56 142 3.5 9.6 0.00 0.00 0.00 64 1011.7
20260505094122 56 148 6.1 11.3 0.00 0.00 0.00 64 1011.7
20260505093619 56 157 5.2 8.7 0.00 0.00 0.00 63 1011.7
20260505093116 56 157 4.3 10.4 0.00 0.00 0.00 61 1011.5
20260505092613 56 137 5.2 11.3 0.00 0.00 0.00 61 1011.7
20260505092112 56 130 4.3 9.6 0.00 0.00 0.00 60 1011.4
20260505091608 56 153 3.5 8.7 0.00 0.00 0.00 60 1011.5
20260505091106 56 134 4.3 5.2 0.00 0.00 0.00 60 1011.6
20260505090604 57 138 2.6 8.7 0.00 0.00 0.00 59 1011.6
20260505085559 56 134 3.5 13.0 0.00 0.00 0.00 64 1011.6
20260505085057 56 162 4.3 7.8 0.00 0.00 0.00 64 1011.6
20260505084555 56 176 7.0 7.8 0.00 0.00 0.00 64 1011.9
20260505084053 56 153 2.6 6.1 0.00 0.00 0.00 64 1011.8
20260505083550 56 152 2.6 10.4 0.00 0.00 0.00 64 1011.8
20260505083046 56 141 2.6 7.8 0.00 0.00 0.00 63 1011.8
20260505082542 56 148 2.6 9.6 0.00 0.00 0.00 63 1011.9
20260505082039 56 126 2.6 7.8 0.00 0.00 0.00 62 1011.9
20260505081535 56 120 4.3 7.0 0.00 0.00 0.00 63 1011.8
20260505081033 56 116 9.6 12.2 0.00 0.00 0.00 62 1011.9
20260505080529 56 155 7.8 10.4 0.00 0.00 0.00 62 1011.8
20260505080026 56 140 4.3 6.1 0.00 0.00 0.00 62 1011.9
20260505075522 56 140 5.2 9.6 0.00 0.00 0.00 63 1012.2
20260505075019 56 143 6.1 10.4 0.00 0.00 0.00 62 1012.0
20260505074516 56 137 5.2 11.3 0.00 0.00 0.00 62 1011.9
20260505074013 56 170 4.3 9.6 0.00 0.00 0.00 61 1012.0
20260505073510 56 169 7.8 14.8 0.00 0.00 0.00 60 1012.3
20260505073009 56 174 3.5 13.0 0.00 0.00 0.00 58 1012.2
20260505072504 56 157 3.5 18.2 0.00 0.00 0.00 58 1012.3
20260505072000 56 156 11.3 13.0 0.00 0.00 0.00 56 1012.2
20260505071455 56 180 9.6 13.0 0.00 0.00 0.00 55 1012.0
20260505070954 57 156 3.5 10.4 0.00 0.00 0.00 55 1012.2
20260505070450 57 139 10.4 13.0 0.00 0.00 0.00 54 1012.0
20260505065946 57 174 7.0 18.2 0.00 0.00 0.00 54 1012.0
20260505065443 57 155 6.1 13.0 0.00 0.00 0.00 54 1012.3
20260505064940 57 169 10.4 11.3 0.00 0.00 0.00 54 1012.3
20260505064437 56 142 9.6 17.4 0.00 0.00 0.00 54 1012.2
20260505063935 57 144 8.7 18.2 0.00 0.00 0.00 54 1012.2
20260505063431 57 147 6.1 13.9 0.00 0.00 0.00 54 1012.4
20260505062928 57 152 7.8 15.6 0.00 0.00 0.00 53 1012.0
20260505062425 57 170 14.8 21.7 0.00 0.00 0.00 54 1012.0
20260505061921 57 192 9.6 20.9 0.00 0.00 0.00 55 1012.2
20260505061420 57 180 12.2 15.6 0.00 0.00 0.00 54 1012.0
20260505060917 57 178 13.0 22.6 0.00 0.00 0.00 55 1012.3
20260505060414 56 177 7.8 17.4 0.00 0.00 0.00 57 1012.0
20260505055910 56 188 7.8 15.6 0.00 0.00 0.00 57 1012.3
20260505055406 56 187 4.3 20.0 0.00 0.00 0.00 57 1012.2
20260505054903 56 182 11.3 18.2 0.00 0.00 0.00 59 1012.2
20260505054400 56 184 5.2 15.6 0.00 0.00 0.00 60 1012.0
20260505053859 57 154 7.0 18.2 0.00 0.00 0.00 59 1012.2
20260505053355 57 184 6.1 21.7 0.00 0.00 0.00 58 1012.0
20260505052852 57 161 12.2 18.2 0.00 0.00 0.00 58 1012.2
20260505052349 57 172 11.3 17.4 0.00 0.00 0.00 59 1011.8
20260505051846 57 156 8.7 16.5 0.00 0.00 0.00 59 1011.8
20260505051343 57 139 9.6 20.0 0.00 0.00 0.00 59 1011.9
20260505050842 57 142 13.0 19.1 0.00 0.00 0.00 59 1011.9
20260505050340 57 149 8.7 20.0 0.00 0.00 0.00 59 1011.9
20260505041307 61 145 4.3 13.0 0.00 0.00 0.00 42 1011.1
20260505040804 62 178 3.5 15.6 0.00 0.00 0.00 40 1011.0
20260505040301 62 161 5.2 12.2 0.00 0.00 0.00 40 1011.0
20260505035758 63 141 5.2 16.5 0.00 0.00 0.00 40 1010.7
20260505035254 62 191 6.1 13.0 0.00 0.00 0.00 41 1010.8
20260505034751 63 188 13.0 20.0 0.00 0.00 0.00 40 1010.4
20260505034248 63 187 6.1 13.0 0.00 0.00 0.00 40 1010.6
20260505033744 63 168 6.1 14.8 0.00 0.00 0.00 40 1010.3
20260505033242 63 163 2.6 13.9 0.00 0.00 0.00 43 1010.4
20260505032740 62 185 7.0 11.3 0.00 0.00 0.00 44 1010.2
20260505032236 62 180 5.2 9.6 0.00 0.00 0.00 46 1010.2
20260505031733 62 132 3.5 11.3 0.00 0.00 0.00 45 1010.3
20260505031229 63 167 5.2 13.9 0.00 0.00 0.00 43 1010.2
20260505030727 63 189 7.0 12.2 0.00 0.00 0.00 41 1010.4
20260505030223 63 183 9.6 15.6 0.00 0.00 0.00 41 1010.2
20260505025718 63 179 8.7 14.8 0.00 0.00 0.00 41 1010.2
20260505025217 63 172 4.3 11.3 0.00 0.00 0.00 42 1010.0
20260505024715 64 177 3.5 11.3 0.00 0.00 0.00 42 1010.0
20260505024211 64 172 9.6 13.9 0.00 0.00 0.00 42 1010.1
20260505023709 64 175 7.0 12.2 0.00 0.00 0.00 41 1010.0
20260505023206 64 172 9.6 12.2 0.00 0.00 0.00 41 1009.8
20260505022704 64 169 5.2 17.4 0.00 0.00 0.00 41 1009.8
20260505022200 65 186 11.3 18.2 0.00 0.00 0.00 41 1009.8
20260505021657 65 185 7.8 14.8 0.00 0.00 0.00 39 1009.8
20260505021154 66 165 4.3 14.8 0.00 0.00 0.00 37 1009.6
20260505020649 65 179 7.8 12.2 0.00 0.00 0.00 37 1009.5
20260505020145 66 161 6.1 13.9 0.00 0.00 0.00 37 1009.8
20260505015643 66 165 5.2 14.8 0.00 0.00 0.00 37 1009.8
20260505015139 66 165 10.4 15.6 0.00 0.00 0.00 36 1009.5
20260505014636 66 144 12.2 19.1 0.00 0.00 0.00 36 1009.8
20260505014133 66 156 10.4 18.2 0.00 0.00 0.00 36 1009.8
20260505013631 66 164 7.0 14.8 0.00 0.00 0.00 36 1009.9
20260505013128 67 162 7.0 13.9 0.00 0.00 0.00 36 1009.4
20260505012626 67 140 7.8 15.6 0.00 0.00 0.00 35 1009.9
20260505012122 69 171 13.0 13.0 0.00 0.00 0.00 30 1009.8
20260505011618 70 183 4.3 6.1 0.00 0.00 0.00 30 1009.8
20260505011116 72 158 3.5 5.2 0.00 0.00 0.00 28 1009.8
20260505010611 73 17 0.0 2.6 0.00 0.00 0.00 26 1009.6
20260505010108 73 31 0.9 2.6 0.00 0.00 0.00 27 1009.9
20260505005604 71 358 0.9 2.6 0.00 0.00 0.00 27 1009.9
20260505005101 70 91 0.9 2.6 0.00 0.00 0.00 29 1009.9
20260505004558 71 1 1.7 4.3 0.00 0.00 0.00 27 1009.9
20260505004055 73 80 1.7 2.6 0.00 0.00 0.00 27 1010.1
20260505003552 70 57 1.7 3.5 0.00 0.00 0.00 29 1010.1
20260505003049 69 149 2.6 3.5 0.00 0.00 0.00 30 1010.0
20260505002544 69 180 3.5 3.5 0.00 0.00 0.00 30 1009.9
20260505002043 69 118 1.7 4.3 0.00 0.00 0.00 32 1009.9
20260505001540 69 124 3.5 7.8 0.00 0.00 0.00 31 1009.9
20260505001037 69 333 0.9 4.3 0.00 0.00 0.00 32 1009.9
20260505000535 68 79 6.1 7.8 0.00 0.00 0.00 31 1010.0
20260505000032 69 85 1.7 6.1 0.00 0.00 0.00 30 1010.1
20260504235529 69 85 2.6 6.1 0.00 0.00 0.00 31 1010.0
20260504235025 69 146 2.6 5.2 0.00 0.00 0.00 30 1010.2
20260504234522 69 120 0.9 7.0 0.00 0.00 0.00 30 1010.1
20260504234020 70 42 2.6 6.1 0.00 0.00 0.00 32 1010.0
20260504233515 68 41 2.6 7.0 0.00 0.00 0.00 33 1010.2
20260504233012 68 353 2.6 5.2 0.00 0.00 0.00 32 1010.3
20260504232509 68 319 7.0 13.0 0.00 0.00 0.00 32 1010.2
20260504232007 68 65 5.2 13.9 0.00 0.00 0.00 33 1010.6
20260504231503 68 66 5.2 11.3 0.00 0.00 0.00 33 1010.4
20260504230959 68 66 6.1 11.3 0.00 0.00 0.00 33 1010.3
20260504230455 68 78 8.7 17.4 0.00 0.00 0.00 33 1010.3
20260504225955 67 40 8.7 15.6 0.00 0.00 0.00 32 1010.3
20260504225451 68 74 9.6 17.4 0.00 0.00 0.00 32 1010.4
20260504224948 70 62 4.3 15.6 0.00 0.00 0.00 31 1010.2
20260504224445 72 359 4.3 6.1 0.00 0.00 0.00 28 1010.3
20260504223942 71 29 1.7 4.3 0.00 0.00 0.00 29 1010.2
20260504223438 71 307 1.7 6.1 0.00 0.00 0.00 28 1010.3
20260504222933 71 355 5.2 7.0 0.00 0.00 0.00 27 1010.1
20260504222431 71 315 5.2 6.1 0.00 0.00 0.00 28 1010.2
20260504221929 70 345 3.5 9.6 0.00 0.00 0.00 29 1010.2
20260504221425 70 330 3.5 9.6 0.00 0.00 0.00 31 1010.1
20260504220923 69 309 4.3 12.2 0.00 0.00 0.00 31 1010.2
20260504220419 69 287 6.1 9.6 0.00 0.00 0.00 31 1010.3
20260504215916 69 287 4.3 11.3 0.00 0.00 0.00 33 1010.3
20260504215413 68 293 5.2 13.0 0.00 0.00 0.00 34 1010.2
20260504214909 68 262 7.0 15.6 0.00 0.00 0.00 34 1010.6
20260504214406 68 280 3.5 10.4 0.00 0.00 0.00 36 1010.7
20260504213903 67 316 4.3 11.3 0.00 0.00 0.00 35 1010.6
20260504213359 67 275 12.2 15.6 0.00 0.00 0.00 36 1010.4
20260504212856 66 251 9.6 17.4 0.00 0.00 0.00 36 1010.6
20260504212352 66 295 8.7 16.5 0.00 0.00 0.00 37 1010.6
20260504211850 65 266 5.2 17.4 0.00 0.00 0.00 38 1010.7
20260504211346 66 273 7.8 18.2 0.00 0.00 0.00 37 1010.6
20260504210843 66 268 9.6 14.8 0.00 0.00 0.00 36 1011.0
20260504210340 67 249 16.5 16.5 0.00 0.00 0.00 34 1011.1
20260504205837 67 307 7.8 16.5 0.00 0.00 0.00 34 1010.9
20260504205335 67 265 10.4 21.7 0.00 0.00 0.00 33 1011.0
20260504204833 67 221 7.8 13.9 0.00 0.00 0.00 32 1011.0
20260504204331 68 303 7.0 15.6 0.00 0.00 0.00 32 1010.9
20260504203830 68 257 4.3 17.4 0.00 0.00 0.00 33 1011.0
20260504203327 68 327 2.6 13.0 0.00 0.00 0.00 33 1010.8
20260504202822 68 272 4.3 10.4 0.00 0.00 0.00 32 1010.9
20260504202320 68 258 4.3 13.0 0.00 0.00 0.00 33 1010.8
20260504201817 69 280 9.6 14.8 0.00 0.00 0.00 32 1010.8
20260504201314 70 249 3.5 7.8 0.00 0.00 0.00 30 1010.7
20260504200811 72 217 0.0 4.3 0.00 0.00 0.00 28 1010.7
20260504200308 71 187 1.7 11.3 0.00 0.00 0.00 28 1010.9
20260504195804 72 84 3.5 6.1 0.00 0.00 0.00 27 1010.9
20260504195300 71 182 5.2 7.0 0.00 0.00 0.00 27 1010.9
20260504194757 71 178 2.6 11.3 0.00 0.00 0.00 28 1011.0
20260504194253 71 159 5.2 7.8 0.00 0.00 0.00 28 1010.9
20260504193749 71 156 4.3 9.6 0.00 0.00 0.00 29 1010.9
20260504193247 71 99 3.5 8.7 0.00 0.00 0.00 27 1011.2
20260504192745 71 168 7.8 9.6 0.00 0.00 0.00 28 1011.1
20260504192243 71 132 4.3 6.1 0.00 0.00 0.00 29 1011.1
20260504191741 71 116 2.6 8.7 0.00 0.00 0.00 28 1011.4
20260504191238 71 178 8.7 10.4 0.00 0.00 0.00 28 1011.4
20260504190733 71 186 5.2 9.6 0.00 0.00 0.00 28 1011.2
20260504190230 70 104 2.6 7.8 0.00 0.00 0.00 29 1011.2
20260504185726 71 159 8.7 9.6 0.00 0.00 0.00 28 1011.5
20260504185223 71 120 4.3 10.4 0.00 0.00 0.00 29 1011.6
20260504184719 71 132 5.2 12.2 0.00 0.00 0.00 28 1011.5
20260504184216 71 116 7.8 17.4 0.00 0.00 0.00 29 1011.6
20260504183711 71 95 4.3 20.0 0.00 0.00 0.00 30 1011.7
20260504183209 72 151 4.3 13.0 0.00 0.00 0.00 30 1011.5
20260504182707 72 159 3.5 13.0 0.00 0.00 0.00 29 1011.8
20260504182204 71 131 5.2 16.5 0.00 0.00 0.00 29 1011.7
20260504181701 71 131 7.8 18.2 0.00 0.00 0.00 30 1011.8
20260504181159 71 149 3.5 11.3 0.00 0.00 0.00 30 1011.8
20260504180657 72 129 4.3 8.7 0.00 0.00 0.00 29 1012.0
20260504180156 71 167 6.1 15.6 0.00 0.00 0.00 31 1012.0
20260504175652 71 152 8.7 14.8 0.00 0.00 0.00 31 1012.2
20260504175149 71 115 6.1 13.9 0.00 0.00 0.00 30 1012.2
20260504174647 70 148 6.1 15.6 0.00 0.00 0.00 31 1012.0
20260504174144 71 199 7.8 20.9 0.00 0.00 0.00 31 1012.5
20260504173641 70 152 2.6 14.8 0.00 0.00 0.00 33 1012.3
20260504173138 70 142 13.0 22.6 0.00 0.00 0.00 31 1012.3
20260504172635 69 124 13.0 17.4 0.00 0.00 0.00 32 1012.4
20260504172131 69 172 5.2 17.4 0.00 0.00 0.00 32 1012.3
20260504171628 69 154 3.5 13.9 0.00 0.00 0.00 33 1012.4
20260504171125 69 155 6.1 16.5 0.00 0.00 0.00 33 1012.4
20260504170621 68 158 3.5 15.6 0.00 0.00 0.00 34 1012.7
20260504170119 69 117 14.8 14.8 0.00 0.00 0.00 32 1012.6
20260504151004 64 139 4.3 13.0 0.00 0.00 0.00 43 1013.2
20260504150502 63 136 7.8 13.9 0.00 0.00 0.00 44 1013.1
20260504140928 62 160 5.2 10.4 0.00 0.00 0.00 46 1013.0
20260504140424 61 128 3.5 10.4 0.00 0.00 0.00 46 1013.1
20260504130349 57 170 3.5 6.1 0.00 0.00 0.00 51 1013.0
20260504120312 57 161 6.1 10.4 0.00 0.00 0.00 51 1013.0